Farmingdale, NY

1:59 AM EDT on September 25, 2016 (GMT -0400)
Republic

Weather History for KFRG - March, 2013

Change the Weather History Date:

Thursday, March 7, 2013

  Actual Average Record
Temperature  
Mean Temperature 34 °F -  
Max Temperature 37 °F 42 °F 66 °F (2009)
Min Temperature 32 °F 28 °F 10 °F (2003)
Degree Days  
Heating Degree Days 30    
Moisture  
Dew Point 31 °F    
Average Humidity 88    
Maximum Humidity 93    
Minimum Humidity 81    
Precipitation  
Precipitation 0.06 in - - ()
Sea Level Pressure  
Sea Level Pressure 29.96 in    
Wind  
Wind Speed 20 mph (North)    
Max Wind Speed 25 mph    
Max Gust Speed 38 mph    
Visibility 3 miles    
Events Fog , Rain , Snow    
Averages and records for this station are not official NWS values.
T = Trace of Precipitation, MM = Missing Value Source: NWS Daily Summary

Daily Weather History Graph

Daily Weather History Graph

Search for Another Location

Airport or City:

Trip Planner

Search our weather history database for the weather conditions in past years. The results will help you decide how hot, cold, wet, or windy it might be!

Date:

Astronomy

Mar. 07, 2013 Rise Set
Actual Time 6:17 AM EST 5:51 PM EST
Civil Twilight 5:50 AM EST 6:19 PM EST
Nautical Twilight 5:18 AM EST 6:50 PM EST
Astronomical Twilight 4:47 AM EST 7:22 PM EST
Moon 3:16 AM EST (3/7) 1:35 PM EST (3/7)
Length of Visible Light 12h 28m
Length of Day
11h 34m
Waning Crescent, 20% of the Moon is Illuminated
Mar 7
Waning Crescent
Mar 11
New
Mar 19
First Quarter
Mar 27
Full
Apr 3
Last Quarter

Hourly Weather History & Observations

Time (EST) Temp. Windchill Dew Point Humidity Pressure Visibility Wind Dir Wind Speed Gust Speed Precip Events Conditions
12:03 AM 33.8 °F 21.6 °F 30.2 °F 87% 29.87 in 10.0 mi NNE 23.0 mph 31.1 mph 0.00 in Rain Light Freezing Rain
12:10 AM 35.6 °F 24.2 °F 30.2 °F 81% 29.88 in 10.0 mi NNE 21.9 mph 33.4 mph 0.00 in Rain Light Freezing Rain
12:19 AM 35.6 °F 23.7 °F 30.2 °F 81% 29.87 in 10.0 mi NNE 24.2 mph 33.4 mph 0.00 in   Overcast
12:28 AM 35.6 °F 24.0 °F 30.2 °F 81% 29.88 in 9.0 mi NNE 23.0 mph 34.5 mph 0.00 in Rain Light Freezing Rain
12:39 AM 33.8 °F 21.6 °F 30.2 °F 87% 29.89 in 5.0 mi NNE 23.0 mph 33.4 mph 0.00 in Snow Light Snow
12:51 AM 33.8 °F 21.6 °F 30.2 °F 87% 29.89 in 6.0 mi NNE 23.0 mph 31.1 mph 0.00 in Snow Light Snow
12:53 AM 34.0 °F 21.5 °F 30.9 °F 89% 29.89 in 6.0 mi NNE 24.2 mph 33.4 mph 0.00 in Snow Light Snow
1:37 AM 33.8 °F 22.2 °F 30.2 °F 87% 29.89 in 2.5 mi NNE 20.7 mph 31.1 mph 0.00 in Snow Light Snow
1:44 AM 33.8 °F 22.8 °F 30.2 °F 87% 29.89 in 3.0 mi NNE 18.4 mph 26.5 mph 0.00 in Snow Light Snow
1:53 AM 34.0 °F 22.4 °F 30.9 °F 89% 29.89 in 3.0 mi NNE 20.7 mph 27.6 mph 0.00 in Snow Light Snow
2:17 AM 33.8 °F 22.2 °F 30.2 °F 87% 29.88 in 3.0 mi NNE 20.7 mph 31.1 mph 0.00 in Snow Light Snow
2:39 AM 33.8 °F 22.5 °F 30.2 °F 87% 29.89 in 2.5 mi North 19.6 mph 32.2 mph 0.01 in Snow Light Snow
2:50 AM 33.8 °F 23.2 °F 30.2 °F 87% 29.89 in 3.0 mi North 17.3 mph 29.9 mph 0.01 in Snow Light Snow
2:53 AM 33.1 °F 20.9 °F 30.9 °F 92% 29.89 in 3.0 mi North 21.9 mph 29.9 mph 0.01 in Snow Light Snow
3:01 AM 33.8 °F 22.2 °F 30.2 °F 87% 29.88 in 4.0 mi North 20.7 mph 27.6 mph 0.00 in Snow Light Snow
3:18 AM 33.8 °F 22.2 °F 30.2 °F 87% 29.88 in 5.0 mi NNE 20.7 mph 32.2 mph 0.00 in Snow Light Snow
3:29 AM 33.8 °F 22.5 °F 30.2 °F 87% 29.89 in 2.5 mi NNE 19.6 mph 31.1 mph 0.00 in Snow Light Snow
3:53 AM 33.1 °F 20.6 °F 30.9 °F 92% 29.90 in 2.5 mi NNE 23.0 mph 29.9 mph 0.00 in Snow Light Snow
4:02 AM 33.8 °F 21.6 °F 30.2 °F 87% 29.90 in 4.0 mi NNE 23.0 mph 31.1 mph 0.00 in Snow Light Snow
4:53 AM 34.0 °F 22.4 °F 30.0 °F 85% 29.91 in 7.0 mi North 20.7 mph 34.5 mph 0.00 in   Overcast
5:04 AM 33.8 °F 21.9 °F 28.4 °F 81% 29.91 in 7.0 mi NNE 21.9 mph 32.2 mph N/A   Overcast
5:13 AM 33.8 °F 21.6 °F 28.4 °F 81% 29.92 in 5.0 mi North 23.0 mph 33.4 mph 0.00 in Snow Light Snow
5:53 AM 33.1 °F 21.2 °F 28.9 °F 85% 29.93 in 3.0 mi NNE 20.7 mph 34.5 mph 0.00 in Snow Light Snow
6:02 AM 33.8 °F 21.9 °F 28.4 °F 81% 29.93 in 3.0 mi NNE 21.9 mph 34.5 mph 0.00 in Snow Light Snow
6:14 AM 33.8 °F 21.3 °F 28.4 °F 81% 29.94 in 2.0 mi NNE 24.2 mph 38.0 mph 0.00 in Snow Light Snow
6:21 AM 33.8 °F 21.0 °F 28.4 °F 81% 29.94 in 1.5 mi NNE 25.3 mph 35.7 mph 0.00 in Snow Light Snow
6:33 AM 32.0 °F 19.2 °F 30.2 °F 93% 29.94 in 0.8 mi NNE 23.0 mph 31.1 mph 0.00 in Snow Light Snow
6:43 AM 32.0 °F 20.8 °F 30.2 °F 93% 29.95 in 0.5 mi NNE 17.3 mph 31.1 mph 0.00 in Fog , Snow Snow
6:53 AM 32.0 °F 19.8 °F 30.0 °F 92% 29.95 in 0.8 mi North 20.7 mph 28.8 mph 0.00 in Snow Light Snow
6:58 AM 32.0 °F 19.2 °F 30.2 °F 93% 29.95 in 1.0 mi NNE 23.0 mph 31.1 mph 0.00 in Snow Light Snow
7:11 AM 32.0 °F 19.8 °F 30.2 °F 93% 29.96 in 0.8 mi North 20.7 mph 29.9 mph 0.00 in Snow Light Snow
7:34 AM 32.0 °F 20.8 °F 30.2 °F 93% 29.96 in 0.8 mi North 17.3 mph 27.6 mph 0.00 in Snow Light Snow
7:44 AM 32.0 °F 20.8 °F 30.2 °F 93% 29.96 in 0.8 mi North 17.3 mph 25.3 mph 0.00 in Snow Light Snow
7:49 AM 32.0 °F 19.8 °F 30.2 °F 93% 29.96 in 1.0 mi North 20.7 mph 26.5 mph 0.00 in Snow Light Snow
7:53 AM 32.0 °F 20.5 °F 30.0 °F 92% 29.96 in 1.0 mi North 18.4 mph 28.8 mph 0.00 in Snow Light Snow
8:14 AM 33.8 °F 22.5 °F 30.2 °F 87% 29.96 in 2.0 mi North 19.6 mph 26.5 mph 0.00 in Snow Light Snow
8:19 AM 33.8 °F 22.8 °F 30.2 °F 87% 29.95 in 1.8 mi North 18.4 mph 26.5 mph 0.00 in Snow Light Snow
8:28 AM 33.8 °F 23.2 °F 30.2 °F 87% 29.95 in 2.5 mi North 17.3 mph 27.6 mph 0.00 in Snow Light Snow
8:35 AM 33.8 °F 22.5 °F 30.2 °F 87% 29.96 in 4.0 mi North 19.6 mph 27.6 mph 0.00 in Snow Light Snow
8:53 AM 33.1 °F 20.9 °F 30.0 °F 89% 29.96 in 3.0 mi NNE 21.9 mph 32.2 mph 0.01 in Snow Light Snow
9:34 AM 33.8 °F 22.8 °F 30.2 °F 87% 29.97 in 2.0 mi North 18.4 mph 33.4 mph 0.00 in Snow Light Snow
9:41 AM 33.8 °F 21.3 °F 30.2 °F 87% 29.96 in 2.0 mi North 24.2 mph 34.5 mph 0.00 in Snow Light Snow
9:53 AM 34.0 °F 22.7 °F 30.9 °F 89% 29.96 in 1.8 mi North 19.6 mph 34.5 mph 0.00 in Snow Light Snow
10:05 AM 33.8 °F 22.2 °F 30.2 °F 87% 29.96 in 2.0 mi North 20.7 mph 31.1 mph 0.00 in Snow Light Snow
10:39 AM 33.8 °F 22.2 °F 30.2 °F 87% 29.97 in 4.0 mi North 20.7 mph 29.9 mph 0.00 in Snow Light Snow
10:48 AM 35.6 °F 25.2 °F 30.2 °F 81% 29.98 in 6.0 mi North 18.4 mph 29.9 mph 0.00 in Snow Light Snow
10:53 AM 35.1 °F 24.1 °F 30.9 °F 85% 29.98 in 6.0 mi North 19.6 mph 29.9 mph 0.00 in Snow Light Snow
11:53 AM 36.0 °F 26.0 °F 32.0 °F 86% 29.98 in 3.0 mi North 17.3 mph 24.2 mph 0.00 in   Overcast
12:33 PM 35.6 °F 26.2 °F 32.0 °F 87% 29.98 in 3.0 mi North 15.0 mph 20.7 mph 0.00 in Rain Light Freezing Rain
12:44 PM 37.4 °F 28.2 °F 32.0 °F 81% 29.98 in 3.0 mi North 16.1 mph 27.6 mph 0.00 in Rain Light Freezing Rain
12:53 PM 37.0 °F 26.4 °F 32.0 °F 82% 29.98 in 3.0 mi NNE 20.7 mph 28.8 mph 0.00 in   Overcast
1:29 PM 35.6 °F 24.2 °F 32.0 °F 87% 29.98 in 3.0 mi North 21.9 mph 26.5 mph 0.00 in   Overcast
1:53 PM 36.0 °F 26.0 °F 33.1 °F 89% 29.98 in 3.0 mi North 17.3 mph 24.2 mph 0.00 in Rain Light Freezing Rain
2:01 PM 35.6 °F 26.6 °F 33.8 °F 93% 29.98 in 3.0 mi North 13.8 mph 24.2 mph 0.00 in Snow Light Snow
2:28 PM 35.6 °F 26.6 °F 33.8 °F 93% 29.99 in 3.0 mi North 13.8 mph - 0.00 in Rain Light Freezing Rain
2:53 PM 37.0 °F 27.7 °F 34.0 °F 89% 30.00 in 3.0 mi North 16.1 mph 21.9 mph 0.00 in Rain Light Freezing Rain
3:21 PM 35.6 °F 26.6 °F 33.8 °F 93% 30.00 in 3.0 mi North 13.8 mph 20.7 mph 0.00 in   Overcast
3:28 PM 35.6 °F 26.2 °F 33.8 °F 93% 30.00 in 3.0 mi NNW 15.0 mph 20.7 mph 0.00 in Rain Light Freezing Rain
3:53 PM 35.1 °F 25.9 °F 33.1 °F 92% 30.01 in 3.0 mi NNW 13.8 mph 20.7 mph 0.01 in Rain Light Freezing Rain
4:18 PM 35.6 °F 26.6 °F 32.0 °F 87% 30.01 in 3.0 mi NNW 13.8 mph 25.3 mph 0.00 in Rain Light Freezing Rain
4:26 PM 35.6 °F 27.5 °F 32.0 °F 87% 30.02 in 3.0 mi North 11.5 mph 21.9 mph 0.00 in   Overcast
4:53 PM 35.1 °F 25.9 °F 32.0 °F 89% 30.01 in 3.0 mi NNW 13.8 mph 19.6 mph 0.01 in   Overcast
4:57 PM 35.6 °F 27.1 °F 32.0 °F 87% 30.01 in 3.0 mi NNW 12.7 mph - 0.00 in Rain Light Freezing Rain
5:26 PM 33.8 °F 23.9 °F 30.2 °F 87% 30.02 in 3.0 mi NNW 15.0 mph 23.0 mph 0.00 in Snow Light Snow
5:53 PM 34.0 °F 24.6 °F 30.9 °F 89% 30.03 in 3.0 mi NNW 13.8 mph 20.7 mph 0.00 in   Overcast
6:49 PM 33.8 °F 23.9 °F 30.2 °F 87% 30.04 in 3.0 mi NNW 15.0 mph 21.9 mph 0.00 in   Overcast
6:53 PM 34.0 °F 26.6 °F 30.9 °F 89% 30.04 in 3.0 mi North 9.2 mph 21.9 mph 0.00 in   Overcast
7:00 PM 33.8 °F 25.3 °F 30.2 °F 87% 30.04 in 3.0 mi North 11.5 mph 20.7 mph N/A   Overcast
7:20 PM 33.8 °F 26.4 °F 30.2 °F 87% 30.04 in 3.0 mi North 9.2 mph 20.7 mph N/A   Overcast
7:53 PM 34.0 °F 24.2 °F 30.9 °F 89% 30.04 in 3.0 mi North 15.0 mph 19.6 mph 0.00 in Snow Light Snow
8:53 PM 34.0 °F 25.0 °F 30.9 °F 89% 30.04 in 3.0 mi North 12.7 mph 23.0 mph 0.00 in Snow Light Snow
9:14 PM 33.8 °F 25.3 °F 30.2 °F 87% 30.03 in 2.5 mi North 11.5 mph 19.6 mph 0.00 in Snow Light Snow
9:26 PM 33.8 °F 25.8 °F 30.2 °F 87% 30.03 in 3.0 mi North 10.4 mph 19.6 mph 0.00 in Snow Light Snow
9:35 PM 33.8 °F 24.8 °F 30.2 °F 87% 30.03 in 2.5 mi North 12.7 mph 20.7 mph 0.00 in Snow Light Snow
9:49 PM 33.8 °F 25.3 °F 30.2 °F 87% 30.03 in 2.0 mi North 11.5 mph - 0.00 in Snow Light Snow
9:53 PM 33.1 °F 24.4 °F 30.9 °F 92% 30.03 in 1.8 mi North 11.5 mph - 0.00 in Snow Light Snow
10:01 PM 33.8 °F 25.8 °F 30.2 °F 87% 30.03 in 2.0 mi North 10.4 mph 19.6 mph 0.00 in Snow Light Snow
10:15 PM 33.8 °F 25.3 °F 30.2 °F 87% 30.03 in 1.5 mi North 11.5 mph 20.7 mph 0.01 in Snow Light Snow
10:39 PM 33.8 °F 25.3 °F 30.2 °F 87% 30.02 in 1.5 mi North 11.5 mph 21.9 mph 0.01 in Snow Light Snow
10:53 PM 33.1 °F 24.9 °F 30.9 °F 92% 30.02 in 1.5 mi NNW 10.4 mph 19.6 mph 0.01 in Snow Light Snow
11:00 PM 33.8 °F 24.8 °F 30.2 °F 87% 30.02 in 1.5 mi North 12.7 mph 19.6 mph 0.01 in Snow Light Snow
11:53 PM 33.1 °F 24.4 °F 30.9 °F 92% 30.02 in 1.8 mi NNW 11.5 mph 20.7 mph 0.01 in Snow Light Snow